Temperature
26 27 27 28 27 27 27 27 27 28 28 28 27 25 24 23 24 24 23 23 23 23 22 21 21 21 19 18 17 17 17 17 15 15 16 16 15 15 15 15 16 15 15 15
25 26 27 27 26 26 26 26 27 28 27 28 26 24 23 22 21 20 20 20 20 21 21 19 18 18 18 17 16 15 15 16 15 15 16 16 15 14 14 14 14 14 14 14
26 27 27 26 26 25 26 26 27 27 26 27 26 25 24 22 20 20 19 19 18 18 18 17 17 16 16 15 14 14 14 14 14 14 14 15 14 14 13 13 12 13 13 12
26 27 26 25 26 26 27 27 27 27 26 28 26 26 24 23 22 20 19 18 18 18 17 17 16 15 14 13 13 13 13 12 13 13 13 13 14 14 13 12 11 11 11 11
25 26 26 26 26 27 27 27 27 27 26 27 26 26 26 24 23 20 18 17 17 16 16 16 15 14 14 13 13 12 12 12 12 13 13 13 12 12 11 11 10 11 10 10
26 26 26 27 26 26 26 26 26 26 26 24 26 26 25 25 22 20 18 16 16 16 15 15 15 14 14 13 12 12 13 13 13 13 13 12 11 10 10 9 10 10 10 10
25 26 26 26 26 25 25 25 24 24 24 24 25 25 23 20 19 20 18 16 16 15 15 15 14 14 13 12 12 11 11 11 11 11 11 10 10 9 9 8 8 8 8 9
24 22 25 25 26 25 25 25 24 24 24 25 23 25 22 18 17 17 16 15 15 15 14 14 13 13 12 11 10 10 10 10 10 10 10 9 9 8 8 7 8 7 7 7
25 25 25 25 26 25 24 27 26 25 24 23 24 22 19 18 17 16 16 15 15 14 13 13 12 12 11 10 9 9 9 9 9 9 9 9 9 8 7 6 6 6 5 5
25 23 25 24 24 24 24 26 24 23 22 22 23 23 26 19 18 17 16 16 15 14 13 12 12 11 10 9 9 9 9 9 9 8 7 6 6 5 5 5 5 4 4 4
25 23 24 23 23 24 24 24 24 24 25 23 22 24 20 21 19 18 17 15 15 14 13 12 11 11 10 9 9 8 7 7 7 6 6 5 5 5 4 4 4 3 3 2
24 23 23 23 22 22 23 24 24 23 22 23 22 21 17 19 18 17 16 14 13 13 12 12 11 10 9 9 8 7 6 6 6 5 5 4 4 3 3 3 3 2 2 2
22 22 22 21 21 21 22 22 23 23 23 22 21 20 16 17 16 16 15 14 13 12 12 11 11 10 9 8 7 6 5 5 5 4 4 4 3 3 2 2 2 2 2 2
20 22 22 22 23 24 22 21 22 22 22 22 22 19 16 16 16 15 14 13 13 12 11 11 10 9 8 6 5 5 4 4 4 3 3 3 2 2 2 2 2 2 2 1
20 21 21 21 21 23 22 21 21 22 22 21 21 21 17 16 15 14 13 13 12 12 11 10 9 7 6 5 4 4 4 3 2 2 2 1 1 1 2 2 2 2 1 1
18 20 19 18 19 20 20 20 20 19 19 19 19 18 17 15 14 13 13 12 12 12 11 9 7 6 5 4 4 3 3 2 2 2 2 2 1 2 2 2 2 2 2 1
18 18 18 19 18 18 17 18 18 18 17 18 20 17 15 14 14 13 13 12 12 11 10 7 5 5 4 3 2 2 2 2 2 2 2 2 2 2 2 2 2 2 1 1
18 18 19 19 16 16 16 16 17 17 15 16 15 15 14 14 13 12 12 11 11 9 7 6 5 4 3 2 2 1 1 1 2 2 2 2 2 2 2 2 2 1 1 1
18 18 17 15 17 16 14 14 15 15 13 15 15 14 14 13 13 12 10 9 8 7 5 4 3 3 2 1 1 1 1 1 2 2 2 2 2 2 2 2 1 1 1 1
16 17 17 16 16 16 16 15 15 16 13 14 14 14 13 13 16 12 9 8 6 5 4 3 2 2 1 1 1 2 2 3 2 2 2 2 2 2 2 2 2 1 1 1
15 16 15 14 14 16 15 14 14 14 14 13 13 13 12 12 12 10 8 7 5 4 3 2 2 1 1 1 2 2 3 3 2 2 2 2 2 2 2 2 2 2 2 2
14 15 14 14 14 13 14 13 14 14 13 12 12 12 11 11 10 9 7 6 5 4 3 1 1 1 1 2 2 3 3 3 3 3 3 3 3 3 2 2 2 2 1 2
11 13 14 14 14 14 13 13 12 12 12 12 11 11 10 10 9 8 7 5 4 3 2 1 1 2 2 2 2 3 3 3 3 4 4 3 3 3 3 2 2 2 1 1
11 11 12 13 13 12 12 12 12 12 11 11 11 10 10 9 8 7 6 5 4 2 2 2 3 3 3 3 3 3 3 4 4 4 4 4 4 3 3 3 2 2 1 0
13 13 13 12 12 12 11 11 11 11 10 10 10 9 9 8 7 6 5 4 3 2 2 3 3 3 4 4 4 4 4 4 4 4 5 4 4 4 4 3 2 1 -0 -1
12 12 13 13 12 13 11 11 10 10 10 10 9 8 8 7 6 5 4 3 2 2 3 3 3 4 4 4 5 4 4 4 4 5 5 4 4 4 4 3 3 2 1 -0
Wind_Speed
10 11 14 11 8 6 4 6 7 7 5 5 5 8 10 10 7 5 5 4 5 5 4 4 6 7 6 6 9 13 15 14 2 9 6 4 4 4 4 4 5 4 2 2
10 14 10 5 7 8 9 10 10 5 3 5 10 10 11 12 12 9 7 8 8 8 6 6 4 2 4 3 6 12 11 12 8 8 0 2 2 3 3 4 3 3 4 5
17 5 7 10 10 11 12 13 12 9 7 6 10 10 11 11 12 13 13 12 12 11 11 9 7 5 4 6 8 11 12 12 6 2 1 4 4 4 3 2 2 5 5 5
12 10 9 11 12 13 12 11 9 10 10 6 8 5 12 12 12 14 14 13 13 12 12 12 12 11 10 11 11 11 12 12 8 4 3 5 4 4 5 5 5 5 5 7
9 12 13 13 10 12 5 8 9 10 11 7 8 9 9 12 10 11 12 13 14 14 15 15 15 15 15 14 14 14 14 14 12 11 9 8 8 6 5 7 8 8 8 10
8 6 7 5 3 6 7 9 8 9 11 12 10 7 6 6 5 9 11 12 13 15 16 16 16 15 15 15 14 14 15 15 14 14 14 13 11 9 9 10 11 11 12 12
14 13 8 6 6 7 11 12 10 11 12 9 5 7 2 6 7 10 12 12 12 13 13 14 14 14 14 14 13 12 13 13 12 12 12 11 10 8 10 11 12 13 13 14
15 14 14 10 12 11 16 17 15 10 12 8 7 6 6 9 9 10 11 12 11 11 12 12 12 12 12 12 11 11 11 10 10 9 8 8 8 9 10 12 13 13 13 14
11 10 8 5 7 9 10 10 11 12 10 9 7 5 6 11 12 11 12 11 10 10 10 10 11 11 11 11 11 10 9 8 8 9 9 10 11 11 12 13 13 13 14 14
14 10 11 8 6 5 7 7 6 11 14 11 11 11 8 18 15 13 12 12 10 9 9 9 10 10 10 9 8 8 8 8 9 10 10 10 12 13 14 15 15 15 15 15
20 14 9 9 12 12 9 11 10 8 8 10 12 4 3 10 15 14 13 12 10 9 8 7 8 8 8 7 7 8 8 9 10 11 12 13 15 16 16 15 15 14 13 13
17 15 17 10 4 4 7 10 13 12 11 11 12 3 3 8 13 13 12 11 9 7 6 6 6 7 7 7 7 8 9 11 12 13 15 16 16 16 15 14 14 13 13 13
11 13 18 12 7 8 9 9 11 12 11 9 11 3 7 11 13 12 11 9 7 5 4 5 6 7 7 7 8 9 10 12 14 15 16 16 16 16 16 15 15 14 12 11
6 12 21 21 17 18 16 14 15 16 14 15 13 6 12 14 14 12 10 7 4 4 4 6 7 7 7 8 9 10 12 13 15 16 15 15 14 14 14 14 13 13 12 12
7 11 13 6 2 6 13 15 15 15 10 7 3 5 13 14 13 12 9 5 2 2 4 6 8 7 7 9 10 12 13 13 12 13 12 12 11 11 13 13 13 12 13 13
8 8 11 8 7 9 11 13 11 7 6 4 5 8 12 14 13 10 6 2 1 3 5 7 7 8 9 11 12 12 11 9 9 8 9 9 11 12 13 14 14 12 12 13
12 13 13 9 10 11 9 12 11 7 4 5 4 11 16 14 11 7 3 1 3 6 8 8 8 8 9 11 11 10 9 9 9 10 12 10 12 14 14 12 11 11 12 13
14 16 11 9 11 7 4 5 6 7 6 6 13 17 15 12 8 5 3 5 6 7 7 6 7 8 9 9 8 8 8 9 10 9 10 11 11 12 12 11 11 12 12 13
11 13 7 7 12 5 5 8 10 11 8 10 16 16 13 9 5 7 7 6 6 5 4 5 6 7 8 7 7 7 8 9 10 11 11 10 9 9 10 11 11 11 12 13
5 8 8 8 10 8 6 12 11 9 9 12 14 14 11 5 2 7 7 5 4 3 4 5 6 6 5 5 6 7 8 10 11 11 8 7 7 8 9 11 11 12 12 12
7 6 6 7 5 2 8 13 11 7 11 17 13 11 7 3 4 5 4 4 4 3 5 6 6 4 3 4 6 7 8 10 9 7 6 5 6 8 10 11 11 11 12 12
7 4 4 3 7 4 14 14 6 9 18 16 12 9 6 4 4 3 3 3 3 4 5 5 4 2 2 3 5 6 7 6 6 5 6 7 8 9 10 12 11 10 12 12
3 3 1 1 1 10 15 10 14 18 17 13 10 8 6 5 4 3 2 2 3 4 4 3 2 2 2 2 5 6 7 7 7 7 8 9 9 9 11 12 11 10 12 13
3 4 4 5 9 15 14 17 16 16 14 12 11 9 6 5 3 3 2 2 2 3 3 3 3 3 3 5 7 8 9 8 9 10 10 10 8 7 10 9 10 11 11 14
5 8 7 10 16 14 16 17 16 15 14 13 11 8 6 4 3 2 2 2 3 4 4 3 3 4 6 7 7 7 7 8 9 10 9 9 9 9 10 10 7 8 8 8
2 5 7 8 15 10 17 17 16 15 13 12 10 9 6 4 3 2 3 4 5 5 5 3 3 5 6 7 6 6 7 9 10 10 11 9 9 10 11 12 8 3 4 6
Wind_Direction
202 226 225 223 222 261 244 232 224 210 175 220 143 84 63 56 62 63 31 7 344 330 348 335 285 254 223 202 160 140 132 120 178 249 181 173 145 134 147 147 153 163 183 248
210 228 228 191 197 213 214 222 225 198 193 217 123 109 86 71 68 57 41 35 15 11 20 12 335 265 228 173 143 141 153 139 186 256 11 87 107 118 122 128 107 40 358 329
228 206 173 191 199 212 220 231 231 211 167 190 162 148 118 91 72 62 52 45 37 33 37 45 49 62 77 100 121 125 131 134 143 80 213 130 149 151 164 117 8 6 340 337
229 213 201 212 218 221 229 215 224 200 202 201 212 212 142 117 83 64 56 52 49 51 56 59 66 74 83 93 99 104 111 116 111 118 105 69 45 30 20 348 354 332 341 342
209 201 206 217 217 214 205 162 200 205 224 243 223 244 145 154 107 75 70 67 67 67 68 69 71 77 83 87 89 87 85 79 73 65 55 52 43 29 6 359 339 329 337 330
218 189 217 212 145 213 163 167 185 217 233 241 230 234 165 126 107 110 98 90 85 81 80 80 79 76 75 77 79 76 72 66 61 58 54 49 40 20 3 353 336 339 330 323
214 209 203 199 183 170 197 200 209 216 226 234 178 225 110 103 120 126 121 111 104 98 88 79 74 72 70 69 70 73 73 70 63 58 52 42 24 6 351 346 342 330 322 321
211 208 202 204 225 213 209 220 232 237 246 226 162 232 120 121 124 124 121 118 114 102 87 78 72 71 72 69 67 68 68 64 55 47 36 25 5 353 344 345 331 320 320 317
222 215 158 187 222 240 213 227 250 269 260 263 229 147 140 152 152 150 141 133 121 102 87 78 73 68 66 66 63 59 55 46 31 18 6 357 353 344 336 328 318 314 312 309
233 225 189 170 187 211 255 227 216 235 247 243 243 222 186 176 174 166 158 143 127 108 90 74 65 58 54 51 50 41 29 15 3 354 348 342 337 332 328 321 314 313 312 313
226 226 200 185 216 216 195 216 236 261 256 259 250 225 58 172 172 171 159 141 127 111 85 64 53 48 40 27 19 12 3 354 349 344 340 335 331 327 322 315 314 316 320 322
214 219 222 202 156 281 265 241 218 228 236 241 266 290 88 143 157 164 154 138 120 91 64 53 39 23 9 6 3 357 353 347 342 336 330 327 324 321 319 320 325 330 328 328
187 208 217 207 200 206 219 216 228 234 256 252 253 225 139 147 153 158 153 140 119 82 55 36 14 6 6 2 357 352 348 341 333 329 327 327 330 333 334 336 334 324 314 309
208 217 219 227 227 217 200 208 209 217 233 244 245 161 161 168 165 161 155 144 113 77 45 18 5 10 10 2 353 346 340 339 338 338 339 348 354 345 335 327 313 306 307 309
207 218 217 226 229 217 195 194 198 215 233 262 261 142 155 164 157 152 151 141 116 53 19 14 11 11 2 354 348 346 346 353 355 353 354 354 340 325 316 316 318 320 322 325
203 205 183 165 157 161 169 175 178 180 184 174 145 113 135 142 139 150 152 128 32 353 2 10 15 1 356 353 348 344 354 357 350 343 344 344 334 326 325 328 336 341 350 350
192 184 193 178 163 161 180 181 176 166 187 192 170 134 144 150 155 150 125 47 3 360 3 12 1 357 355 349 340 345 348 341 344 355 352 346 334 335 339 343 357 2 357 354
189 186 201 172 172 206 120 127 168 149 135 120 118 132 145 142 137 123 55 9 8 6 9 3 354 353 350 347 349 347 345 341 337 343 343 340 349 353 3 8 2 354 350 352
203 172 169 188 212 188 144 165 167 152 130 135 133 136 135 130 161 113 74 51 36 26 19 6 0 346 351 351 347 342 353 330 335 349 355 356 0 4 10 7 2 356 349 356
194 190 172 192 208 225 145 156 168 154 150 153 145 143 139 150 228 92 74 57 61 46 24 8 351 344 356 354 351 356 345 359 7 10 12 5 3 3 2 356 354 352 349 358
157 160 156 168 195 128 126 149 160 190 149 152 147 141 144 133 52 64 69 76 65 35 24 11 353 1 357 358 1 355 3 20 18 27 26 12 2 353 356 349 350 348 348 351
170 160 156 202 225 203 149 158 171 119 128 139 141 140 140 117 105 93 82 66 34 11 27 20 8 18 5 359 354 350 12 5 1 6 357 350 349 349 351 343 344 348 353 348
137 137 198 250 132 122 150 133 125 126 130 137 139 135 137 134 114 103 86 40 23 18 38 31 39 74 78 350 329 329 332 327 327 331 337 338 339 349 347 353 355 359 1 355
148 160 183 168 123 134 136 129 130 127 129 132 131 134 139 120 109 108 66 35 40 69 77 87 105 86 13 332 320 313 311 314 312 321 332 333 331 342 345 1 2 2 9 0
146 163 141 132 133 135 141 138 131 128 129 126 125 122 114 110 95 69 70 77 93 102 109 110 64 3 338 334 333 337 344 342 340 334 334 344 347 353 352 0 6 5 27 21
160 162 178 161 157 156 152 146 142 141 140 135 129 121 108 94 94 82 88 106 121 126 124 91 10 339 345 349 0 10 8 5 5 3 9 14 1 4 3 359 9 83 118 118
Height
1512 1512 1507 1503 1504 1506 1506 1508 1509 1506 1506 1507 1509 1517 1520 1520 1519 1520 1523 1524 1525 1526 1528 1529 1530 1531 1531 1531 1533 1534 1537 1538 1547 1552 1549 1548 1544 1541 1542 1542 1542 1542 1541 1542
1511 1507 1500 1504 1508 1508 1508 1510 1507 1503 1506 1505 1511 1519 1522 1524 1526 1527 1526 1526 1527 1527 1528 1529 1528 1528 1529 1531 1532 1533 1539 1540 1542 1552 1549 1545 1544 1540 1542 1542 1542 1540 1539 1538
1502 1498 1501 1505 1506 1508 1506 1505 1502 1503 1505 1504 1509 1517 1518 1525 1527 1528 1527 1527 1527 1527 1529 1530 1529 1529 1530 1531 1531 1534 1537 1539 1542 1543 1548 1542 1543 1540 1541 1541 1540 1537 1536 1534
1499 1497 1502 1502 1500 1502 1497 1497 1499 1500 1504 1500 1505 1511 1515 1518 1525 1529 1531 1532 1532 1532 1532 1532 1532 1532 1533 1534 1534 1535 1537 1538 1539 1541 1543 1541 1541 1539 1539 1540 1538 1536 1533 1530
1495 1494 1497 1498 1495 1496 1494 1496 1497 1498 1501 1502 1502 1508 1507 1514 1521 1531 1536 1537 1536 1535 1535 1535 1536 1536 1537 1537 1537 1537 1537 1537 1538 1539 1539 1537 1536 1537 1539 1538 1537 1535 1531 1528
1490 1493 1493 1492 1496 1496 1498 1499 1500 1499 1500 1512 1500 1505 1506 1507 1523 1531 1537 1540 1540 1540 1540 1540 1540 1541 1541 1541 1540 1539 1537 1537 1538 1537 1535 1535 1535 1536 1536 1534 1532 1529 1526 1523
1493 1491 1491 1494 1495 1499 1498 1502 1509 1513 1510 1508 1499 1505 1513 1524 1528 1530 1536 1540 1542 1543 1543 1544 1544 1544 1543 1543 1542 1541 1540 1539 1538 1537 1535 1534 1535 1534 1533 1530 1527 1523 1520 1517
1489 1499 1487 1489 1489 1492 1495 1496 1505 1511 1511 1499 1506 1505 1515 1528 1533 1536 1539 1542 1544 1545 1546 1546 1546 1546 1546 1544 1543 1542 1540 1539 1537 1536 1535 1533 1532 1531 1529 1525 1521 1517 1513 1509
1480 1482 1482 1486 1487 1489 1495 1490 1489 1494 1499 1508 1497 1508 1522 1528 1532 1535 1539 1542 1544 1546 1547 1548 1548 1548 1547 1546 1544 1543 1542 1540 1538 1536 1534 1532 1529 1527 1523 1519 1514 1511 1507 1503
1475 1485 1479 1485 1489 1491 1491 1486 1503 1502 1510 1511 1499 1498 1494 1519 1526 1533 1537 1540 1544 1547 1548 1549 1549 1549 1548 1547 1546 1543 1542 1541 1538 1535 1532 1529 1525 1522 1517 1513 1509 1505 1500 1497
1472 1482 1482 1485 1486 1482 1488 1490 1489 1488 1486 1498 1506 1498 1506 1505 1519 1528 1535 1540 1543 1545 1548 1549 1550 1549 1549 1548 1547 1545 1543 1540 1537 1534 1529 1525 1521 1517 1513 1509 1505 1500 1496 1492
1469 1475 1479 1480 1484 1486 1483 1481 1484 1496 1495 1494 1500 1508 1517 1513 1522 1530 1537 1541 1543 1545 1547 1549 1549 1549 1548 1548 1547 1544 1541 1538 1534 1530 1526 1522 1517 1512 1508 1504 1499 1495 1492 1488
1469 1474 1481 1488 1492 1489 1486 1485 1483 1485 1488 1490 1499 1509 1522 1522 1528 1533 1538 1542 1544 1546 1547 1548 1548 1548 1548 1547 1545 1542 1539 1535 1531 1527 1522 1517 1511 1507 1502 1499 1494 1491 1487 1484
1469 1465 1470 1476 1470 1466 1479 1485 1485 1484 1486 1488 1489 1504 1520 1523 1528 1534 1539 1542 1544 1546 1547 1547 1548 1548 1547 1545 1543 1539 1535 1531 1527 1521 1516 1511 1507 1503 1500 1496 1492 1489 1486 1483
1469 1465 1466 1470 1470 1465 1469 1480 1484 1482 1483 1490 1489 1492 1512 1521 1527 1534 1540 1542 1543 1545 1546 1547 1547 1547 1545 1542 1539 1535 1531 1527 1522 1518 1514 1510 1507 1503 1499 1496 1493 1489 1485 1482
1470 1468 1472 1478 1476 1474 1478 1482 1486 1490 1494 1495 1497 1506 1514 1524 1531 1536 1539 1541 1542 1544 1545 1546 1545 1544 1541 1538 1535 1532 1528 1524 1521 1517 1514 1511 1507 1503 1500 1496 1492 1488 1485 1481
1465 1468 1474 1475 1481 1481 1490 1486 1489 1494 1498 1497 1494 1507 1520 1527 1531 1535 1539 1541 1542 1544 1545 1544 1542 1541 1539 1536 1533 1530 1526 1523 1520 1516 1514 1511 1506 1503 1499 1496 1493 1489 1485 1480
1461 1464 1464 1471 1488 1493 1491 1493 1493 1497 1504 1504 1506 1513 1521 1527 1532 1536 1539 1540 1542 1544 1544 1543 1541 1540 1538 1534 1531 1527 1525 1523 1520 1516 1513 1510 1507 1504 1500 1497 1494 1489 1485 1480
1463 1461 1470 1482 1479 1483 1494 1496 1497 1499 1509 1507 1511 1517 1524 1529 1531 1535 1539 1541 1543 1543 1543 1541 1539 1537 1535 1531 1528 1527 1525 1523 1521 1517 1513 1511 1508 1505 1502 1498 1494 1489 1485 1480
1468 1461 1465 1473 1480 1483 1483 1491 1495 1499 1508 1512 1515 1519 1524 1529 1526 1534 1540 1541 1541 1542 1541 1538 1536 1534 1532 1530 1528 1528 1527 1524 1521 1517 1513 1511 1509 1506 1503 1499 1494 1489 1485 1480
1468 1466 1470 1478 1481 1478 1488 1495 1499 1501 1504 1511 1517 1522 1526 1529 1533 1538 1539 1539 1539 1539 1538 1535 1533 1531 1531 1530 1530 1529 1528 1525 1522 1518 1515 1512 1509 1506 1503 1498 1494 1489 1484 1480
1472 1470 1476 1480 1483 1492 1492 1497 1499 1500 1507 1515 1520 1524 1528 1531 1535 1537 1538 1539 1539 1538 1536 1533 1531 1530 1531 1531 1531 1530 1529 1526 1523 1519 1516 1513 1510 1506 1502 1497 1493 1489 1484 1479
1481 1478 1480 1485 1487 1486 1492 1496 1503 1507 1511 1517 1522 1525 1529 1532 1535 1537 1538 1538 1538 1536 1534 1532 1532 1532 1533 1532 1532 1531 1529 1526 1523 1520 1517 1513 1509 1506 1502 1498 1493 1489 1485 1480
1484 1484 1487 1487 1491 1493 1497 1501 1506 1510 1515 1519 1523 1527 1530 1532 1535 1536 1538 1537 1536 1535 1534 1534 1535 1535 1535 1534 1532 1530 1528 1525 1522 1519 1516 1513 1510 1506 1502 1498 1494 1490 1485 1480
1474 1480 1484 1485 1491 1497 1501 1504 1508 1514 1518 1521 1525 1528 1531 1533 1535 1536 1536 1536 1535 1534 1535 1536 1537 1537 1536 1534 1532 1530 1527 1524 1521 1518 1516 1512 1509 1506 1502 1498 1493 1490 1484 1479
1480 1480 1479 1482 1492 1493 1500 1506 1511 1516 1520 1523 1526 1529 1531 1533 1534 1535 1534 1534 1534 1535 1537 1538 1538 1537 1536 1534 1532 1530 1527 1524 1522 1519 1516 1512 1509 1505 1502 1498 1493 1488 1485 1480